When you browse on this site, cookies collect data to enhance your experience and personalize the content and advertising you see.
Visit our Privacy Policy to learn more. By continuing to use the site, you agree to this use of cookies and data.
  • In Austria
  • List of Countries
  • For 7 days
  • Water Temperature
  • Weather Map
  • News
  • Weather Widgets
  • user-avatar
    Login

    Hourly Weather Byala

    Today, 24 October, Thursday

    Time Temperature Precipitation Wind Pressure Humidity
    00:00 +14°C° 0 mm 1 mps 756 mmHg 87%
    01:00 +14°C° 0 mm 1 mps 756 mmHg 87%
    02:00 +14°C° 0 mm 1 mps 755 mmHg 88%
    03:00 +13°C° 0 mm 1 mps 755 mmHg 87%
    04:00 +13°C° 0 mm 1 mps 755 mmHg 87%
    05:00 +13°C° 0 mm 1 mps 755 mmHg 87%
    06:00 +14°C° 0 mm 1 mps 755 mmHg 83%
    07:00 +14°C° 0 mm 1 mps 755 mmHg 80%
    08:00 +15°C° 0 mm 1 mps 755 mmHg 77%
    09:00 +17°C° 0 mm 2 mps 755 mmHg 69%
    10:00 +19°C° 0 mm 2 mps 755 mmHg 61%
    11:00 +20°C° 0 mm 2 mps 755 mmHg 53%
    12:00 +21°C° 0 mm 2 mps 755 mmHg 52%
    13:00 +21°C° 0 mm 2 mps 754 mmHg 51%
    14:00 +23°C° 0 mm 2 mps 754 mmHg 50%
    15:00 +20°C° 0 mm 2 mps 754 mmHg 57%
    16:00 +19°C° 0 mm 2 mps 753 mmHg 65%
    17:00 +18°C° 0 mm 1 mps 753 mmHg 72%
    18:00 +17°C° 0 mm 2 mps 753 mmHg 75%
    19:00 +16°C° 0 mm 2 mps 753 mmHg 79%
    20:00 +15°C° 0 mm 2 mps 754 mmHg 83%
    21:00 +15°C° 0 mm 1 mps 754 mmHg 83%
    22:00 +14°C° 0 mm 1 mps 753 mmHg 84%
    23:00 +14°C° 0 mm 1 mps 753 mmHg 85%

    Tomorrow, 25 October, Friday

    Time Temperature Precipitation Wind Pressure Humidity
    00:00 +14°C° 0 mm 1 mps 753 mmHg 85%
    01:00 +13°C° 0 mm 0 mps 753 mmHg 85%
    02:00 +12°C° 0 mm 0 mps 753 mmHg 85%
    03:00 +13°C° 0 mm 1 mps 753 mmHg 85%
    04:00 +13°C° 0 mm 1 mps 753 mmHg 85%
    05:00 +13°C° 0 mm 1 mps 753 mmHg 84%
    06:00 +14°C° 0 mm 1 mps 753 mmHg 81%
    07:00 +14°C° 0 mm 1 mps 753 mmHg 78%
    08:00 +15°C° 0 mm 1 mps 754 mmHg 75%
    09:00 +18°C° 0 mm 1 mps 754 mmHg 67%
    10:00 +20°C° 0 mm 1 mps 754 mmHg 60%
    11:00 +21°C° 0 mm 1 mps 754 mmHg 53%
    12:00 +21°C° 0 mm 2 mps 754 mmHg 51%
    13:00 +21°C° 0 mm 2 mps 754 mmHg 49%
    14:00 +23°C° 0 mm 2 mps 754 mmHg 47%
    15:00 +20°C° 0 mm 2 mps 754 mmHg 54%
    16:00 +19°C° 0 mm 2 mps 754 mmHg 62%
    17:00 +17°C° 0 mm 2 mps 753 mmHg 69%
    18:00 +17°C° 0 mm 2 mps 754 mmHg 72%
    19:00 +16°C° 0 mm 1 mps 754 mmHg 75%
    20:00 +15°C° 0 mm 1 mps 754 mmHg 78%
    21:00 +15°C° 0 mm 1 mps 755 mmHg 79%
    22:00 +15°C° 0 mm 1 mps 755 mmHg 80%
    23:00 +13°C° 0 mm 0 mps 755 mmHg 81%

    Day after tomorrow, 26 October, Saturday

    Time Temperature Precipitation Wind Pressure Humidity
    00:00 +14°C° 0 mm 1 mps 755 mmHg 81%
    01:00 +14°C° 0 mm 1 mps 755 mmHg 80%
    02:00 +14°C° 0 mm 1 mps 755 mmHg 80%
    03:00 +13°C° 0 mm 2 mps 755 mmHg 79%
    04:00 +13°C° 0 mm 2 mps 756 mmHg 78%
    05:00 +13°C° 0 mm 2 mps 756 mmHg 77%
    06:00 +14°C° 0 mm 2 mps 756 mmHg 74%
    07:00 +14°C° 0 mm 2 mps 756 mmHg 70%
    08:00 +15°C° 0 mm 2 mps 757 mmHg 67%
    09:00 +17°C° 0 mm 2 mps 757 mmHg 58%
    10:00 +19°C° 0 mm 2 mps 757 mmHg 50%
    11:00 +21°C° 0 mm 2 mps 757 mmHg 42%
    12:00 +23°C° 0 mm 2 mps 757 mmHg 39%
    13:00 +23°C° 0 mm 1 mps 757 mmHg 37%
    14:00 +24°C° 0 mm 1 mps 756 mmHg 35%
    15:00 +22°C° 0 mm 1 mps 756 mmHg 42%
    16:00 +21°C° 0 mm 1 mps 756 mmHg 48%
    17:00 +18°C° 0 mm 2 mps 756 mmHg 55%
    18:00 +18°C° 0 mm 1 mps 756 mmHg 59%
    19:00 +16°C° 0 mm 1 mps 756 mmHg 62%
    20:00 +15°C° 0 mm 0 mps 756 mmHg 66%
    21:00 +14°C° 0 mm 0 mps 756 mmHg 66%
    22:00 +14°C° 0 mm 0 mps 756 mmHg 66%
    23:00 +15°C° 0 mm 1 mps 756 mmHg 66%

    27 October, Sunday

    Time Temperature Precipitation Wind Pressure Humidity
    00:00 +15°C° 0 mm 1 mps 756 mmHg 65%
    01:00 +14°C° 0 mm 1 mps 756 mmHg 64%
    02:00 +14°C° 0 mm 1 mps 756 mmHg 64%
    03:00 +14°C° 0 mm 1 mps 756 mmHg 63%
    04:00 +14°C° 0 mm 2 mps 756 mmHg 63%
    05:00 +14°C° 0 mm 2 mps 756 mmHg 62%
    06:00 +14°C° 0 mm 1 mps 756 mmHg 61%
    07:00 +15°C° 0 mm 1 mps 756 mmHg 59%
    08:00 +16°C° 0 mm 1 mps 756 mmHg 57%
    09:00 +19°C° 0 mm 1 mps 756 mmHg 52%
    10:00 +20°C° 0 mm 1 mps 756 mmHg 46%
    11:00 +22°C° 0 mm 1 mps 756 mmHg 41%
    12:00 +23°C° 0 mm 1 mps 756 mmHg 40%
    13:00 +23°C° 0 mm 1 mps 755 mmHg 40%
    14:00 +23°C° 0 mm 1 mps 755 mmHg 39%
    15:00 +22°C° 0 mm 1 mps 754 mmHg 47%
    16:00 +19°C° 0 mm 2 mps 754 mmHg 54%
    17:00 +18°C° 0 mm 2 mps 754 mmHg 61%
    18:00 +17°C° 0 mm 2 mps 754 mmHg 64%
    19:00 +16°C° 0 mm 1 mps 754 mmHg 67%
    20:00 +15°C° 0 mm 1 mps 754 mmHg 70%
    21:00 +15°C° 0 mm 1 mps 754 mmHg 72%
    22:00 +15°C° 0 mm 1 mps 754 mmHg 73%
    23:00 +14°C° 0 mm 1 mps 754 mmHg 75%

    28 October, Monday

    Time Temperature Precipitation Wind Pressure Humidity
    00:00 +14°C° 0 mm 1 mps 753 mmHg 76%
    01:00 +14°C° 0 mm 1 mps 753 mmHg 78%
    02:00 +13°C° 0 mm 1 mps 753 mmHg 79%
    03:00 +13°C° 0 mm 1 mps 752 mmHg 78%
    04:00 +13°C° 0 mm 1 mps 752 mmHg 78%
    05:00 +13°C° 0 mm 1 mps 752 mmHg 77%
    06:00 +13°C° 0 mm 1 mps 752 mmHg 74%
    07:00 +14°C° 0 mm 1 mps 752 mmHg 70%
    08:00 +15°C° 0 mm 1 mps 751 mmHg 67%
    09:00 +18°C° 0 mm 1 mps 751 mmHg 60%
    10:00 +20°C° 0 mm 1 mps 751 mmHg 53%
    11:00 +20°C° 0 mm 2 mps 751 mmHg 46%
    12:00 +21°C° 0 mm 2 mps 751 mmHg 46%
    13:00 +21°C° 0 mm 2 mps 750 mmHg 46%
    14:00 +21°C° 0 mm 2 mps 750 mmHg 46%
    15:00 +20°C° 0 mm 2 mps 750 mmHg 54%
    16:00 +18°C° 0 mm 2 mps 750 mmHg 62%
    17:00 +17°C° 0 mm 2 mps 749 mmHg 71%
    18:00 +16°C° 0 mm 2 mps 749 mmHg 75%
    19:00 +15°C° 0 mm 2 mps 750 mmHg 80%
    20:00 +15°C° 0 mm 2 mps 750 mmHg 84%
    21:00 +14°C° 0 mm 2 mps 750 mmHg 86%
    22:00 +14°C° 0 mm 1 mps 750 mmHg 87%
    23:00 +14°C° 0 mm 1 mps 750 mmHg 88%

    29 October, Tuesday

    Time Temperature Precipitation Wind Pressure Humidity
    00:00 +14°C° 0 mm 1 mps 750 mmHg 88%
    01:00 +13°C° 0 mm 1 mps 750 mmHg 89%
    02:00 +13°C° 0 mm 1 mps 750 mmHg 89%
    03:00 +13°C° 0 mm 1 mps 749 mmHg 89%
    04:00 +13°C° 0 mm 1 mps 749 mmHg 89%
    05:00 +13°C° 0 mm 1 mps 749 mmHg 89%
    06:00 +13°C° 0 mm 1 mps 749 mmHg 87%
    07:00 +14°C° 0 mm 1 mps 750 mmHg 85%
    08:00 +14°C° 0 mm 1 mps 750 mmHg 83%
    09:00 +16°C° 0 mm 1 mps 750 mmHg 74%
    10:00 +19°C° 0 mm 1 mps 750 mmHg 64%
    11:00 +20°C° 0 mm 1 mps 750 mmHg 54%
    12:00 +21°C° 0 mm 1 mps 750 mmHg 50%
    13:00 +22°C° 0 mm 1 mps 750 mmHg 46%
    14:00 +23°C° 0 mm 2 mps 749 mmHg 43%
    15:00 +20°C° 0 mm 2 mps 749 mmHg 51%
    16:00 +19°C° 0 mm 2 mps 749 mmHg 59%
    17:00 +17°C° 0 mm 2 mps 749 mmHg 67%
    18:00 +16°C° 0 mm 2 mps 749 mmHg 70%
    19:00 +16°C° 0 mm 2 mps 749 mmHg 72%
    20:00 +15°C° 0 mm 1 mps 749 mmHg 75%
    21:00 +15°C° 0 mm 1 mps 749 mmHg 75%
    22:00 +15°C° 0 mm 1 mps 750 mmHg 75%
    23:00 +14°C° 0 mm 1 mps 750 mmHg 75%

    30 October, Wednesday

    Time Temperature Precipitation Wind Pressure Humidity
    00:00 +14°C° 0 mm 1 mps 750 mmHg 74%
    01:00 +14°C° 0 mm 1 mps 749 mmHg 72%
    02:00 +14°C° 0 mm 1 mps 749 mmHg 70%
    03:00 +14°C° 0 mm 1 mps 749 mmHg 69%
    04:00 +13°C° 0 mm 1 mps 749 mmHg 67%
    05:00 +13°C° 0 mm 1 mps 749 mmHg 66%
    06:00 +14°C° 0 mm 1 mps 749 mmHg 63%
    07:00 +14°C° 0 mm 2 mps 749 mmHg 60%
    08:00 +15°C° 0 mm 2 mps 749 mmHg 56%
    09:00 +18°C° 0 mm 1 mps 749 mmHg 49%
    10:00 +20°C° 0 mm 1 mps 749 mmHg 42%
    11:00 +22°C° 0 mm 1 mps 749 mmHg 35%
    12:00 +23°C° 0 mm 1 mps 749 mmHg 33%
    13:00 +23°C° 0 mm 1 mps 749 mmHg 32%
    14:00 +24°C° 0 mm 1 mps 749 mmHg 30%
    15:00 +22°C° 0 mm 1 mps 748 mmHg 38%
    16:00 +19°C° 0 mm 2 mps 748 mmHg 45%
    17:00 +18°C° 0 mm 2 mps 748 mmHg 53%
    18:00 +17°C° 0 mm 2 mps 748 mmHg 57%
    19:00 +16°C° 0 mm 2 mps 748 mmHg 61%
    20:00 +16°C° 0 mm 2 mps 748 mmHg 64%
    21:00 +16°C° 0 mm 2 mps 748 mmHg 65%
    22:00 +15°C° 0 mm 2 mps 748 mmHg 66%
    23:00 +15°C° 0 mm 2 mps 748 mmHg 66%
    Show more